Location: Newark
(34.6283°N, 36.0776°E)
Time: 00:31:23
(UTC+00:00)

Tiros 1 despin weight - Pass Details

Date: 22 September 2019
Orbit: 593 x 643 km, 48.2° (Epoch: 19 October)

Event Time Altitude Azimuth Distance (km) Brightness Sun altitude
Rises 09:31:57 0° 256° (WSW) 2,895 ? 55.7°
Reaches altitude 10° 09:34:26 10° 266° (W) 1,982 ? 55.7°
Maximum altitude 09:38:37 35° 332° (NNW) 1,001 ? 55.6°
Drops below altitude 10° 09:42:45 10° 38° (NE) 1,958 ? 55.6°
Sets 09:45:12 0° 48° (NE) 2,856 ? 55.5°
